Wind_Speed
34 34 31 30 29 28 27 26 25 26 25 24 23 23 22 20 20 20 20 19 19 19 19 19 19 19 20 21 22 23 24 25 26 27 28 29 29 30 30 30 30 30 30 30
36 33 31 31 30 28 27 26 26 27 26 24 24 23 22 20 20 20 20 19 19 19 19 19 19 20 21 22 23 24 25 25 26 27 28 29 30 30 30 29 29 29 29 29
36 32 31 31 30 28 27 26 26 26 26 25 25 23 22 20 20 20 20 20 20 20 19 20 20 21 22 23 24 25 26 26 27 28 29 29 30 29 29 28 28 28 29 29
36 33 32 31 30 29 27 26 26 26 27 26 26 25 21 20 21 21 21 21 20 20 21 21 22 23 24 25 25 26 27 27 29 30 30 30 30 29 29 29 29 30 30 31
35 33 32 32 30 30 27 27 27 27 28 27 25 27 23 20 20 22 22 22 21 22 22 23 23 24 25 26 26 27 28 29 30 31 31 31 30 30 30 31 31 32 33 33
33 33 32 31 30 29 28 28 28 28 29 27 23 28 25 21 20 22 23 23 23 23 23 24 24 25 26 27 28 29 30 31 32 33 33 33 32 32 32 33 34 35 36 37
32 33 32 31 30 29 28 28 28 28 28 28 25 27 26 23 22 23 23 23 23 24 24 25 25 27 27 28 29 30 31 33 34 34 35 34 34 34 35 36 36 37 39 40
33 32 32 31 30 29 29 29 28 29 28 28 26 25 24 23 24 24 24 24 24 25 26 26 27 28 29 30 31 32 33 35 35 36 36 36 36 37 37 38 39 40 41 43
33 34 33 31 31 31 30 29 28 29 28 28 27 26 24 22 25 25 25 25 26 27 27 28 29 30 31 32 33 34 36 36 37 38 38 38 38 39 39 40 41 43 45 46
32 34 34 32 32 31 31 29 28 29 28 29 28 26 25 21 23 26 26 27 27 28 28 29 30 31 33 34 36 37 38 38 39 39 39 40 40 41 42 43 44 46 48 49
32 33 33 31 31 30 30 28 28 29 29 29 29 28 26 23 24 26 28 29 29 29 30 31 32 34 35 37 38 39 40 40 40 40 41 41 42 43 44 45 46 48 50 51
31 32 32 31 31 31 30 29 29 30 29 30 30 29 26 26 26 28 29 30 30 31 32 33 34 36 37 39 40 41 42 42 42 42 43 43 44 45 46 47 49 51 52 54
32 34 33 33 31 31 31 29 29 30 31 30 30 28 27 27 28 30 31 31 32 32 33 35 36 38 39 40 42 43 43 44 44 44 45 45 46 47 48 50 51 53 54 56
34 34 33 32 31 31 30 30 30 31 31 30 29 28 29 30 32 32 33 33 34 35 36 37 39 40 41 42 44 45 45 46 46 46 46 47 48 49 50 52 53 55 57 59
35 34 33 33 34 34 32 31 31 32 31 32 30 30 29 32 35 35 35 35 36 37 38 39 41 42 43 44 45 46 46 47 47 47 48 48 50 51 52 54 55 57 59 61
36 36 35 35 35 35 35 33 33 32 32 32 33 32 30 34 36 37 38 38 39 40 40 41 42 43 44 45 46 47 47 48 48 49 49 50 52 53 54 56 57 59 61 63
38 37 37 36 36 37 38 34 34 34 33 34 35 33 34 36 36 37 39 40 41 42 42 43 44 45 46 46 47 48 48 49 49 50 51 52 54 55 56 58 60 61 63 65
39 38 39 38 38 41 35 34 34 35 34 35 36 35 36 37 38 39 40 41 42 43 44 44 45 45 46 47 47 48 49 49 50 51 53 54 55 56 58 60 61 63 66 68
41 40 41 40 41 39 36 35 35 36 36 35 36 37 38 39 40 40 41 43 44 44 44 45 45 46 46 47 47 48 49 50 52 53 54 55 56 58 59 61 64 66 68 70
40 41 41 41 42 41 37 37 37 38 38 35 36 38 40 40 41 41 42 43 43 44 44 45 45 46 46 47 48 49 50 51 52 53 55 56 58 59 62 64 66 68 70 72
39 40 41 41 43 42 40 39 38 39 38 37 38 39 39 40 40 41 42 42 43 43 44 45 45 46 46 47 48 49 51 52 53 54 56 57 59 61 64 66 68 70 72 74
37 39 41 42 44 42 39 40 40 39 39 40 40 40 40 40 40 41 41 42 43 43 44 45 45 46 47 48 49 50 52 53 54 55 57 58 61 64 66 68 70 72 74 76
38 37 38 40 41 40 40 39 39 39 40 40 41 41 40 40 40 41 42 42 43 44 45 45 46 47 48 49 50 51 52 53 54 56 58 61 63 65 68 70 72 74 76 78
39 38 38 38 39 39 40 40 40 40 41 41 41 41 41 41 42 42 43 44 45 46 46 46 47 48 49 50 51 52 53 54 56 58 60 62 64 67 70 72 74 76 78 79
39 38 38 38 38 39 40 40 40 41 41 41 41 41 41 42 43 44 45 45 46 46 46 47 48 49 49 50 50 52 53 55 57 59 62 64 67 70 72 73 76 78 79 79
39 39 39 38 38 40 40 40 41 42 42 42 43 43 44 44 45 45 46 46 46 46 47 48 48 49 49 49 51 53 55 57 59 61 64 67 69 72 74 76 77 77 78 76
Wind_Direction
240 242 244 246 249 250 254 257 262 266 269 269 270 271 272 272 272 272 272 271 270 271 271 272 274 276 278 281 283 286 288 290 291 292 291 291 290 290 289 289 288 287 286 286
239 241 242 244 246 249 252 255 259 263 267 269 269 270 271 271 271 272 271 271 270 270 270 273 275 278 281 284 286 289 291 292 292 293 293 292 291 290 289 288 287 287 287 287
239 239 239 243 246 248 250 254 257 261 265 268 269 268 269 271 270 271 271 270 270 270 271 274 277 280 283 286 289 291 292 293 294 294 294 293 291 290 289 288 287 287 287 287
239 238 240 242 244 246 249 253 256 260 265 267 269 268 266 268 271 271 271 270 271 271 273 276 279 282 285 288 290 292 292 293 295 295 295 294 292 290 288 287 287 287 288 288
239 239 240 240 242 246 248 251 256 259 263 265 269 271 269 267 269 269 270 271 272 273 275 277 280 283 286 288 291 292 293 294 295 296 295 293 291 289 288 288 288 288 288 288
237 237 239 241 242 246 248 251 256 259 261 264 266 271 272 271 269 270 271 272 273 274 275 278 281 284 286 289 291 292 293 294 295 295 294 292 290 289 288 288 288 288 288 288
238 239 238 239 241 245 248 251 256 258 260 264 263 267 274 277 273 271 272 273 274 275 276 279 282 284 287 289 291 292 293 294 294 294 293 291 289 288 288 288 288 289 289 290
237 238 239 239 242 244 246 250 255 258 259 264 265 269 274 277 276 274 273 274 275 276 278 280 282 285 287 289 290 292 293 294 294 293 291 289 288 288 288 288 289 289 290 291
240 241 239 239 241 243 246 250 254 256 258 264 269 273 273 274 276 276 276 276 276 277 280 282 283 285 287 289 291 292 293 294 294 292 290 288 287 287 288 288 289 289 290 290
240 244 242 242 243 245 248 249 250 253 259 263 267 272 274 271 274 276 276 277 278 279 281 284 285 286 288 290 291 292 293 294 294 292 290 289 288 288 288 288 289 290 291 291
240 244 244 242 244 248 248 248 249 253 258 263 269 271 274 275 274 275 276 278 279 281 283 285 287 287 289 290 291 292 293 294 294 293 291 290 289 289 289 290 290 291 292 293
238 242 244 243 244 245 245 246 249 253 258 262 266 269 275 277 277 276 277 279 281 282 284 286 287 288 289 291 292 293 293 294 294 293 292 291 290 290 290 291 292 293 294 294
237 240 243 244 243 244 245 246 250 254 257 261 267 273 276 276 276 276 278 280 281 283 284 286 287 288 289 290 292 292 293 293 293 293 292 292 291 291 291 292 293 294 295 296
237 240 242 245 248 246 246 248 251 255 259 264 269 273 276 277 276 277 279 280 281 282 284 285 287 288 289 290 291 292 293 293 293 293 292 292 292 292 293 294 295 296 297 298
238 240 241 242 246 249 250 251 252 257 263 267 270 271 275 277 278 280 281 282 282 283 284 286 287 288 290 291 291 292 292 292 293 293 293 293 293 294 295 296 297 298 299 300
241 241 242 243 246 250 253 254 257 260 264 268 270 272 274 275 278 282 283 284 284 285 286 287 288 289 290 291 291 292 292 292 293 293 293 293 294 295 296 297 298 300 301 302
242 244 245 247 248 251 254 258 261 265 267 269 270 273 274 275 278 280 282 284 285 286 287 287 288 289 290 291 291 291 292 292 292 293 293 294 295 296 297 299 300 301 302 303
242 245 248 250 251 254 261 261 262 264 267 269 271 273 274 277 279 281 282 283 284 286 287 288 289 289 290 290 291 291 291 292 292 293 294 295 296 297 298 300 301 302 303 304
244 246 249 253 256 260 261 263 266 267 268 269 272 274 276 278 279 280 282 282 284 285 286 287 288 288 289 290 290 291 291 292 293 294 295 296 297 298 299 300 302 303 304 305
247 249 251 254 258 261 264 265 267 269 270 272 273 274 275 277 278 280 281 282 284 285 285 286 287 288 290 290 291 291 292 293 294 295 296 297 298 299 300 301 303 304 305 307
247 250 253 256 259 262 265 268 270 272 275 275 274 274 276 277 279 280 282 283 284 285 286 287 288 289 290 291 291 291 292 293 294 295 296 297 299 300 302 303 305 306 307 308
248 250 253 256 259 264 268 270 271 274 274 275 276 278 278 279 280 281 282 284 286 287 288 289 289 290 291 291 291 292 292 293 295 296 297 299 300 302 304 305 307 308 309 309
252 253 255 257 261 264 265 267 270 272 274 276 277 279 280 281 282 283 284 286 288 289 289 289 290 290 291 291 292 292 293 294 296 297 299 300 302 304 306 307 308 309 310 310
254 254 254 256 259 262 265 268 270 272 274 276 277 278 280 281 282 284 286 288 289 289 289 289 290 291 291 291 292 293 294 296 297 299 301 302 304 306 307 308 309 310 310 311
252 254 255 257 260 262 265 267 270 272 274 275 277 278 279 281 283 285 287 288 289 289 289 290 291 291 291 292 293 295 296 297 299 301 303 304 306 307 308 309 310 311 311 312
250 254 256 259 261 263 264 266 269 272 274 275 277 278 280 282 284 286 287 288 288 289 289 290 291 291 292 294 295 296 298 300 301 303 305 306 308 309 309 310 311 311 312 312
Height
5797 5801 5804 5805 5807 5809 5810 5811 5812 5812 5812 5813 5813 5813 5813 5814 5814 5814 5814 5814 5814 5814 5814 5813 5813 5812 5812 5811 5810 5809 5808 5806 5804 5803 5801 5799 5797 5795 5793 5790 5789 5787 5785 5784
5790 5794 5797 5798 5800 5803 5804 5805 5805 5806 5806 5807 5807 5808 5808 5808 5809 5809 5809 5809 5809 5809 5809 5809 5808 5808 5807 5806 5805 5803 5802 5800 5798 5796 5794 5792 5790 5788 5786 5784 5782 5780 5778 5777
5783 5788 5789 5792 5794 5796 5797 5799 5800 5800 5800 5801 5801 5803 5803 5803 5803 5803 5804 5804 5804 5804 5804 5804 5803 5802 5801 5800 5799 5797 5795 5794 5792 5790 5787 5785 5783 5781 5779 5777 5775 5774 5772 5770
5775 5780 5782 5785 5788 5789 5791 5793 5794 5794 5794 5795 5796 5796 5799 5798 5798 5798 5798 5798 5799 5799 5799 5798 5798 5797 5796 5794 5793 5791 5789 5787 5785 5783 5780 5778 5776 5774 5772 5771 5769 5767 5765 5763
5769 5773 5776 5779 5782 5783 5785 5787 5788 5788 5788 5789 5790 5789 5792 5793 5793 5792 5792 5793 5793 5793 5793 5792 5792 5791 5789 5788 5786 5784 5783 5780 5778 5776 5773 5771 5769 5767 5765 5763 5761 5759 5757 5755
5762 5765 5769 5772 5775 5777 5779 5781 5781 5781 5781 5783 5785 5782 5784 5787 5787 5787 5787 5787 5787 5787 5787 5786 5785 5784 5783 5782 5780 5778 5776 5773 5771 5768 5766 5763 5761 5759 5757 5755 5753 5751 5749 5747
5755 5758 5762 5765 5768 5770 5773 5775 5775 5775 5776 5777 5779 5777 5779 5780 5781 5781 5781 5781 5781 5781 5781 5780 5779 5778 5777 5775 5773 5771 5769 5766 5764 5761 5758 5756 5754 5751 5749 5747 5745 5742 5740 5737
5747 5752 5755 5758 5762 5764 5765 5767 5770 5770 5770 5769 5771 5772 5774 5774 5773 5773 5774 5775 5775 5774 5774 5773 5773 5771 5770 5768 5766 5764 5761 5759 5756 5753 5751 5748 5745 5743 5741 5738 5736 5733 5730 5727
5741 5744 5748 5751 5754 5756 5758 5761 5762 5763 5763 5764 5765 5766 5768 5768 5767 5766 5767 5768 5768 5768 5767 5766 5765 5764 5763 5761 5758 5756 5754 5751 5748 5745 5742 5739 5737 5734 5732 5729 5726 5723 5720 5717
5734 5737 5740 5743 5746 5749 5752 5754 5755 5755 5757 5757 5759 5760 5761 5763 5762 5761 5760 5761 5761 5761 5760 5759 5758 5756 5755 5752 5750 5748 5745 5742 5739 5736 5733 5730 5728 5725 5722 5719 5716 5713 5709 5705
5728 5730 5733 5737 5740 5743 5745 5747 5748 5749 5751 5752 5753 5755 5754 5756 5756 5755 5754 5754 5754 5753 5752 5751 5750 5748 5746 5744 5741 5739 5736 5733 5730 5727 5724 5721 5718 5715 5712 5708 5705 5701 5697 5693
5720 5723 5726 5730 5733 5734 5737 5740 5741 5744 5745 5745 5746 5750 5748 5748 5748 5747 5746 5746 5746 5745 5744 5743 5741 5739 5737 5735 5732 5729 5726 5723 5720 5717 5713 5710 5707 5704 5701 5697 5693 5689 5684 5680
5713 5716 5719 5722 5727 5728 5730 5733 5734 5736 5736 5737 5739 5743 5741 5741 5740 5739 5739 5739 5738 5737 5736 5734 5732 5730 5728 5725 5722 5719 5716 5712 5709 5706 5703 5699 5696 5692 5689 5685 5680 5676 5671 5666
5706 5709 5714 5716 5717 5720 5723 5726 5727 5728 5729 5731 5732 5734 5733 5732 5732 5731 5731 5731 5730 5729 5727 5725 5723 5720 5718 5715 5712 5708 5705 5702 5698 5695 5691 5688 5684 5680 5676 5671 5667 5662 5656 5651
5698 5702 5705 5708 5709 5712 5715 5717 5719 5720 5722 5723 5725 5725 5726 5724 5722 5722 5722 5721 5720 5719 5717 5715 5712 5710 5707 5704 5701 5697 5694 5690 5687 5683 5679 5676 5671 5667 5663 5658 5653 5647 5642 5635
5690 5694 5697 5700 5702 5703 5705 5708 5711 5713 5714 5715 5716 5717 5718 5715 5714 5713 5711 5711 5709 5708 5706 5704 5701 5699 5696 5693 5689 5686 5682 5678 5675 5671 5667 5663 5659 5654 5649 5644 5638 5633 5626 5620
5682 5685 5688 5691 5694 5694 5697 5702 5703 5705 5706 5706 5706 5709 5707 5706 5705 5704 5702 5700 5699 5697 5695 5693 5690 5687 5684 5681 5677 5674 5670 5666 5662 5659 5654 5650 5645 5640 5635 5630 5624 5617 5611 5604
5674 5677 5679 5682 5684 5685 5694 5694 5695 5696 5697 5698 5697 5698 5697 5696 5695 5694 5692 5690 5688 5686 5684 5681 5678 5675 5672 5669 5665 5661 5658 5654 5650 5646 5641 5636 5631 5626 5621 5615 5609 5602 5595 5588
5665 5668 5670 5672 5673 5676 5682 5684 5685 5686 5688 5689 5688 5688 5686 5686 5684 5683 5682 5679 5677 5675 5672 5670 5667 5663 5660 5657 5653 5649 5645 5642 5637 5633 5628 5623 5617 5612 5606 5600 5593 5586 5579 5571
5656 5659 5662 5663 5664 5666 5674 5675 5675 5676 5677 5680 5678 5676 5675 5675 5674 5673 5670 5668 5666 5663 5661 5658 5655 5651 5648 5645 5641 5637 5633 5629 5625 5620 5615 5609 5603 5598 5591 5585 5577 5569 5561 5553
5647 5649 5651 5653 5654 5657 5662 5663 5664 5666 5668 5667 5666 5665 5665 5664 5663 5661 5659 5656 5654 5652 5649 5646 5642 5639 5636 5632 5629 5625 5621 5616 5611 5607 5601 5595 5589 5583 5576 5569 5561 5553 5544 5535
5638 5640 5642 5644 5644 5650 5654 5653 5654 5655 5655 5654 5653 5653 5653 5652 5650 5649 5647 5645 5642 5640 5637 5634 5630 5627 5624 5620 5616 5612 5608 5603 5598 5593 5588 5582 5575 5568 5560 5552 5544 5535 5525 5516
5627 5632 5634 5636 5639 5641 5641 5642 5643 5643 5643 5642 5642 5642 5641 5640 5638 5637 5635 5633 5630 5628 5625 5621 5618 5615 5611 5607 5603 5599 5594 5589 5584 5579 5573 5567 5560 5552 5544 5535 5526 5517 5506 5495
5618 5621 5623 5626 5628 5630 5631 5631 5632 5632 5632 5631 5631 5631 5630 5628 5627 5625 5623 5621 5618 5615 5612 5609 5606 5602 5598 5594 5590 5585 5581 5576 5570 5565 5558 5551 5544 5536 5528 5518 5508 5498 5487 5475
5608 5610 5613 5616 5618 5619 5620 5621 5621 5621 5621 5620 5620 5619 5618 5617 5615 5613 5611 5608 5606 5603 5600 5596 5593 5589 5585 5581 5577 5572 5567 5562 5556 5550 5543 5536 5527 5519 5510 5501 5491 5479 5468 5454
5599 5601 5604 5606 5609 5610 5610 5611 5611 5610 5610 5609 5609 5608 5607 5605 5603 5601 5598 5596 5593 5590 5587 5584 5580 5576 5572 5568 5563 5558 5553 5547 5541 5535 5527 5519 5511 5502 5492 5483 5474 5463 5450 5438